Regional Weather Roundup
Issued by NWS Sioux Falls, SD

Home | Current Version | Previous Version | Text Only | Print | Product List | Glossary Off
Versions: 1 2 3 4 5 6 7 8 9 10 11 12 13 14 15 16 17 18 19 20 21 22 23 24 25 26 27 28 29 30 31 32 33 34 35 36 37 38 39 40 41 42 43 44 45 46 47 48 49 50

000
ASUS43 KFSD 180702
RWRFSD

WEATHER ROUNDUP FOR SE SOUTH DAKOTA/SW MINNESOTA/NW IOWA
NATIONAL WEATHER SERVICE SIOUX FALLS SD
200 AM CDT THU SEP 18 2014

NOTE: "FAIR" INDICATES FEW OR NO CLOUDS BELOW 12,000 FEET WITH NO
SIGNIFICANT WEATHER AND OR OBSTRUCTIONS TO VISIBILITY.


SDZ038>040-050-052>070-180800-
SOUTHEAST SOUTH DAKOTA

CITY           SKY/WX    TMP DP  RH WIND       PRES   REMARKS
CHAMBERLAIN    CLEAR     56  53  88 E7        29.95S
HURON          CLEAR     56  52  86 E5        29.97R
MADISON        FAIR      52  52 100 CALM      29.99R
MITCHELL       CLEAR     58  56  93 SE3       29.97R
SIOUX FALLS    PTCLDY    59  55  87 E5        29.98S
WINNER         FAIR      63  56  78 SE15      29.93F
YANKTON        PTCLDY    55  54  94 E5        29.97S
$$

MNZ071-072-080-081-089-090-097-098-180800-
SOUTHWEST MINNESOTA

CITY           SKY/WX    TMP DP  RH WIND       PRES   REMARKS
FAIRMONT       MOCLDY    54  46  76 CALM      30.02S
JACKSON        CLEAR     55  52  88 S5        30.02S
LUVERNE        CLEAR     55  52  88 CALM      30.00F
MARSHALL       CLEAR     52  46  82 CALM      30.00S
MONTEVIDEO     CLEAR     54  54 100 S5        30.01S
PIPESTONE      CLEAR     57  52  82 E6        30.00F
REDWOOD FALLS  CLEAR     56  53  90 E5        30.01S
TRACY          CLEAR     58  53  81 CALM      30.01S
WINDOM         CLEAR     55  52  88 E3        30.01S
WORTHINGTON    CLEAR     52  50  93 S3        30.02S
$$

IAZ001>003-012>014-020>022-031-032-NEZ013-014-SDZ071-180800-
NORTHWEST IOWA

CITY           SKY/WX    TMP DP  RH WIND       PRES   REMARKS
CHEROKEE       PTCLDY    55  53  95 SE3       30.00S
DENISON        MOCLDY    59  57  94 E5        29.99R
ESTHERVILLE    CLEAR     52  50  93 S7        30.02R
LE MARS          N/A     57  55  94 SW3       29.99S
ORANGE CITY    CLEAR     59  54  82 E3        29.99F
SHELDON        PTCLDY    55  54  94 SE6       29.99F
SIOUX CITY     PTCLDY    59  56  89 SE6       29.98F
SPENCER        PTCLDY    52  49  89 NE6       30.02R
STORM LAKE     MOCLDY    55  55 100 SE6       30.01S
$$

ABBREVIATIONS USED IN REMARKS
   TC - TEMPERATURE IN CELSIUS
  WCI - WIND CHILL INDEX
   HX - HEAT INDEX
  VSB - VISIBILITY



USA.gov is the U.S. government's official web portal to all federal, state and local government web resources and services.